{"data":{"norad_id":45685,"intl_designator":"2020-035AE","name":"STARLINK-1402","alt_names":[],"object_type":"PAYLOAD","status":"ACTIVE","operator":null,"country":"US","launch_date":"2020-06-04","launch_site_code":"AFETR","launch_vehicle":null,"mission":null,"orbit_class":"UNKNOWN","rcs_meters":null,"size_class":null,"mass_kg":null,"dimensions":null,"purposes":["comms"],"wikipedia_slug":null,"has_3d_model":false,"image_url":null,"decayed_at":null,"tle_current":{"epoch":"2026-09-20T02:37:59.132352Z","epoch_age_seconds":51956,"freshness":"FRESH","line1":"1 45685U 20035AE  26263.10971218  .00057530  00000+0  38816-3 0  9994","line2":"2 45685  53.0360 155.5845 0004712 101.4595 258.6952 15.74545587349700","mean_motion":15.74545587,"eccentricity":0.0004712,"inclination_deg":53.036,"raan_deg":155.5845,"arg_perigee_deg":101.4595,"mean_anomaly_deg":258.6952,"bstar":0.00038816,"rev_number":34970,"period_min":91.454957664557,"perigee_km":342.75619954731,"apogee_km":349.09295517781,"semimajor_km":6724.0615773626,"source":"CELESTRAK","updated_at":"2026-09-20T09:00:38.452448Z"}}}